レモン彗星

C/2019 U6 ( Lemmon )

English version
Home page
Updated on May 30, 2020

---------------------------------------------------------------------

・ プロフィール

発見日 2019年10月31日
発見光度 20.5等
発見者 R. A. Kowalski (Mt. Lemmon Survey)

・ 写真集

・ 軌道要素

Epoch 2020 May 31.0 TT = JDT 2459000.5                                          
T 2020 June 18.82385 TT                                 Rudenko                 
q   0.9142404            (2000.0)            P               Q                  
z  +0.0023235      Peri.  329.66138     -0.68857988     +0.06106134             
 +/-0.0000013      Node   235.70598     -0.35186602     -0.89941785             
e   0.9978758      Incl.   61.00169     -0.63407260     +0.43280370             
From 225 observations 2018 Nov. 6-2020 Mar. 23, mean residual 0".4.             

・ 星図

・ 光度変化

        H = 14.0  G = 0.15               [    ,-243]  (              〜2019年10月19日)
        m1 = 6.5 + 5 logΔ + 20.0 log r  [-243,    ]  (2019年10月19日〜              )

---------------------------------------------------------------------

軌道要素はM.P.E.C. 2020-F136に掲載されたものです。
星図はステラナビゲータ Ver.10 (アストロアーツ) で作成したものです。
光度グラフはComet for Windowsで作成したものです。

---------------------------------------------------------------------

Copyright(C) Seiichi Yoshida (comet@aerith.net). All rights reserved.